Tracking 18957 objects as of 22-Jan-2018
HD Live streaming from Space Station
objects crossing your sky now

BREEZE-M DEB (TANK)

Track BREEZE-M DEB (TANK) now!


NORAD ID: 32374
Int'l Code: 2007-058B
Perigee: 351.7 km
Apogee: 34,481.6 km
Inclination: 46.1 °
Period: 608.5 minutes
Semi major axis: 23787 km
RCS: 5.0489 m2 (large)
Launch date: December 9, 2007
Source: Commonwealth of Independent States (former USSR) (CIS)
Launch site: TYURATAM MISSILE AND SPACE COMPLEX (TTMTR)

Note: This is SATELLITE DEBRIS
aabbcc
Your satellite tracking list
Your tracking list is empty




NASA's NSSDC Master Catalog

Two Line Element Set (TLE):
1 32374U 07058B   18021.30582610  .00000004  00000-0  32170-4 0  9997
2 32374  46.1447 114.8987 7173866 334.2290   3.1135  2.36633174 85951
Source of the keplerian elements: AFSPC